sat.trackr.live / text

‹ back to catalog

STARLINK-4796

NORAD 53909 · 2022-119Z

PAYLOAD ACTIVE UNKNOWN

§ Identity

Operator
Country
US
Launch date
2022-09-24
Launch site
AFETR
Launch vehicle
Mass (kg)
RCS (m²)

Purposes: comms

External: N2YO · Heavens-Above · Gunter

§ Orbital elements

Epoch: 2026-09-20T23:32:48.118272Z

Period
93.85 min
Inclination
53.1619°
Eccentricity
0.0001239
Mean motion
15.34393663 rev/d
Perigee alt
461.9 km
Apogee alt
463.6 km
Semi-major
6,840.9 km
B*
3.0734e-5
RAAN
153.5447°
Arg perigee
88.4018°
Mean anomaly
271.7126°
Rev number
22,135

§ Raw data

STARLINK-47961 53909U 22119Z   26263.98111248  .00000662  00000+0  30734-4 0  99982 53909  53.1619 153.5447 0001239  88.4018 271.7126 15.34393663221358

JSON: /api/v1/satellites/53909 · /tle

For live sub-satellite position, see the globe view (requires WebGL).

§ Visibility from observer

Set your observer location to see the next 7 days of passes ≥ 10°. The values pass through the URL so the page stays shareable.

No JS? Fill the form by hand. The geolocation button needs JavaScript.